軌道要素
Epoch 2014 May 23.0 TT = JDT 2456800.5
T 2014 May 29.62130 TT                                  MPCW
q   1.6550481            (2000.0)            P               Q
n   0.13119463     Peri.  205.06695     +0.71692327     -0.69521575
a   3.8358240      Node   199.27491     +0.66320442     +0.70307705
e   0.5685287      Incl.    9.05002     +0.21489746     +0.14952500
P   7.51
From 3697 observations 2006 Apr. 20-2015 Jan. 2, mean residual 0".7.
     Nongravitational parameters A1 = -0.26, A2 = +0.5785.
  |